Location: Bridgewater Hill Observatory
(43.5992°N, 72.6989°W)
Time: 03:57:29
(UTC-04:00)

Daily predictions for brighter satellites

Satellite Brightness Start Highest point End
(mag) Time Altitude Azimuth Time Altitude Azimuth Time Altitude Azimuth
ISS -0.5 00:14:55 14° NE 00:14:55 14° NE 00:15:28 10° NE
Cosmos 1655 Rocket 4.3 00:11:36 48° SE 00:12:45 54° E 00:18:50 10° NNE
Cosmos 1943 Rocket 2.3 00:13:58 10° NNW 00:19:23 56° WSW 00:19:48 55° SW
Nadezhda 4 Rocket 4.4 00:18:32 39° SW 00:20:35 55° WNW 00:26:50 10° N
Cosmos 1953 4.0 00:17:35 10° NNW 00:20:33 25° W 00:20:33 25° W
Lacrosse 4 Rocket 2.7 00:22:28 31° WNW 00:23:10 33° NW 00:26:56 10° NNE
Cosmos 1544 4.2 00:20:53 10° NNW 00:23:38 41° NW 00:23:38 41° NW
Cosmos 1408 Rocket 4.5 00:25:06 39° ENE 00:25:06 39° ENE 00:28:50 10° NNE
Cosmos 1842 Rocket 4.4 00:21:48 10° NNW 00:25:39 40° W 00:25:39 40° W
Cosmos 1733 3.9 00:23:38 10° N 00:26:42 53° N 00:26:42 53° N
Cosmos 1470 3.5 00:25:28 10° NNW 00:28:29 48° NW 00:28:29 48° NW
Cosmos 1140 Rocket 3.7 00:30:00 55° WSW 00:30:50 64° WNW 00:36:04 10° NNE
SL-27 R/B 4.3 00:37:48 26° NW 00:37:48 26° NW 00:40:05 10° N
Cosmos 2369 Rocket 4.2 00:39:38 10° WNW 00:42:25 14° W 00:42:56 14° WSW
Cosmos 1656 Rocket 3.5 00:37:09 10° NNW 00:42:51 75° WSW 00:43:21 70° SSW
Cosmos 2208 Rocket 4.4 00:38:57 10° NNW 00:43:49 47° W 00:43:49 47° W
Cosmos 1689 Rocket 4.5 00:46:02 23° NW 00:46:02 23° NW 00:47:31 10° NNW
Cosmos 1378 4.4 00:49:05 36° NE 00:49:05 36° NE 00:51:44 10° NNE
CZ-2C R/B 3.0 00:43:15 10° NNE 00:48:40 50° E 00:49:08 48° ESE
CZ-2C R/B 4.2 00:48:31 32° ESE 00:50:09 40° ENE 00:55:21 10° N
Meteor 1-16 Rocket 4.1 00:45:32 10° NNW 00:51:05 76° W 00:51:41 68° SSW
CZ-4B R/B 3.4 00:57:18 25° WNW 00:57:18 25° WNW 00:59:21 10° NNW
COSMOS 2406 3.7 00:55:40 40° WSW 00:57:17 52° WNW 01:02:54 10° NNE
NOSS 3-2 (A) 3.6 00:57:43 51° SE 00:58:16 53° ESE 01:04:40 10° NE
Cosmos 405 Rocket 3.7 00:59:16 42° NE 00:59:16 42° NE 01:02:06 10° NNE
ATLAS 3B R/B 4.1 00:53:50 10° WSW 01:00:57 39° NW 01:07:51 10° NNE
Cosmos 2026 Rocket 4.1 00:59:46 52° SW 01:01:00 64° W 01:07:03 10° N
Cosmos 1766 Rocket 3.6 01:02:19 77° N 01:02:19 77° N 01:06:31 10° N
Cosmos 2278 4.1 01:00:18 10° NNW 01:05:53 56° ENE 01:07:37 40° ESE
Cosmos 2228 Rocket 3.2 01:02:12 10° N 01:06:20 71° NE 01:06:20 71° NE
Cosmos 1763 Rocket 4.5 01:07:25 10° N 01:12:30 42° ENE 01:14:20 31° ESE
Cosmos 1328 Rocket 3.7 01:12:54 10° N 01:17:02 71° NE 01:17:02 71° NE
SL-8 R/B 3.7 01:14:35 10° WNW 01:19:28 81° NNE 01:20:10 64° E
Cosmos 1515 Rocket 3.7 01:20:13 10° N 01:24:37 68° ENE 01:24:37 68° ENE
USA 238 DEB 4.4 01:23:30 25° WSW 01:27:36 51° NW 01:34:28 10° NNE
USA 238 4.4 01:23:38 25° WSW 01:27:41 51° NW 01:34:35 10° NNE
Meteor 1-24 Rocket 4.3 01:27:05 45° WSW 01:28:24 53° WNW 01:34:16 10° N
USA 215 3.5 01:22:44 10° ENE 01:28:59 46° SE 01:29:53 44° SSE
Helios 1A Rocket 4.4 01:25:34 10° N 01:29:02 28° WNW 01:29:04 28° WNW
Cosmos 2221 4.1 01:25:59 10° NNW 01:28:56 24° WNW 01:28:56 24° WNW
Cosmos 2082 Rocket 3.0 01:29:53 35° ESE 01:30:36 37° ESE 01:35:45 10° NE
Cosmos 883 Rocket 4.5 01:25:14 10° N 01:31:37 80° E 01:33:24 50° SSE
Meteor 2-2 Rocket 4.4 01:28:04 10° N 01:33:46 68° ENE 01:35:15 49° SE
Cosmos 1697 Rocket 4.0 01:31:59 10° N 01:37:14 36° NE 01:41:44 13° ESE
Cosmos 1553 Rocket 4.5 01:34:15 10° NNW 01:40:14 46° W 01:41:27 42° WSW
ERS-2 4.3 01:38:55 10° NE 01:41:26 18° E 01:41:26 18° E
Cosmos 2315 Rocket 4.0 01:41:35 10° N 01:47:58 77° E 01:50:07 44° SSE
Cosmos 841 Rocket 3.5 01:43:03 10° NNW 01:48:20 77° ENE 01:49:35 52° SE
Cosmos 1833 Rocket 3.4 01:47:33 36° SE 01:48:38 40° ESE 01:53:51 10° NE
ISS -0.8 01:47:29 15° NW 01:49:10 21° N 01:51:46 10° NE
Meteor 1-21 Rocket 4.2 01:48:32 58° SSW 01:49:45 85° W 01:55:30 10° N
CZ-4C R/B 2.2 01:48:51 56° SW 01:50:05 80° NW 01:56:10 10° NE
NOSS 3-3 (A) 4.4 01:45:14 10° NW 01:52:37 67° WSW 01:55:46 39° S
NOSS 3-3 (C) 4.4 01:45:21 10° NW 01:52:44 68° WSW 01:55:56 38° S
Cosmos 405 4.4 01:52:26 10° N 01:55:44 33° ENE 01:55:57 33° E
Timation 2 Rocket 4.2 01:57:26 45° SW 01:59:48 81° WNW 02:06:40 10° NNE
Cosmos 2344 3.6 01:58:28 41° SSW 02:01:35 77° ESE 02:10:25 10° NE
NOSS 3-2 (C) 3.5 01:59:33 44° SW 02:01:42 75° NW 02:08:29 10° NE
Landsat 4 3.8 02:02:22 69° NE 02:02:22 69° NE 02:05:59 10° N
Cosmos 1818 3.5 01:59:38 10° NW 02:05:05 65° WSW 02:05:51 58° SSW
Cosmos 1674 2.7 02:08:51 73° N 02:08:51 73° N 02:12:18 10° N
Lacrosse 5 rocket 4.4 02:05:39 10° NNW 02:08:34 17° NNE 02:11:33 10° ENE
SL-08 R/B 4.4 02:07:27 23° SE 02:10:01 42° ENE 02:14:36 10° N
Cosmos 1707 Rocket 4.4 02:05:50 10° N 02:10:04 45° ENE 02:11:20 35° ESE
Iridium 2 3.9 02:12:13 62° E 02:12:16 62° E 02:16:02 10° N
CENTAUR R/B 3.4 02:10:43 29° SSE 02:12:40 36° ESE 02:18:42 10° NE
Cosmos 2266 Rocket 4.4 02:11:04 39° SW 02:13:01 51° WNW 02:19:16 10° N
H-2A R/B 3.7 02:14:43 23° SE 02:14:45 23° SE 02:23:44 10° E
Cosmos 836 Rocket 4.4 02:09:37 10° NNW 02:14:51 83° WSW 02:16:12 51° S
Lacrosse 5 3.2 02:15:36 10° NW 02:20:24 41° NNE 02:25:11 10° ESE
Cosmos 1726 3.4 02:20:40 10° N 02:24:06 36° ENE 02:25:11 29° ESE
PSLV R/B 3.6 02:19:40 10° N 02:24:22 81° WNW 02:25:11 60° SSW
Cosmos 2369 4.2 02:20:20 10° NW 02:25:34 40° WSW 02:26:02 39° WSW
IRAS Rocket 4.2 02:20:13 10° NNE 02:25:45 82° ESE 02:27:34 44° S
Cosmos 2322 Rocket 4.4 02:21:14 10° N 02:25:50 25° NE 02:30:21 10° ESE
Cosmos 1656 3.6 02:21:01 10° NNW 02:26:44 76° WSW 02:28:57 39° S
CZ-2C R/B 4.2 02:24:07 10° N 02:28:36 25° WNW 02:30:39 20° W
CZ-2C R/B 4.1 02:29:35 29° WSW 02:30:04 30° W 02:34:57 10° NNW
ARIANE 5 R/B 4.5 02:28:03 10° NE 02:31:54 21° E 02:35:26 11° SE
USA 161 3.8 02:34:26 15° E 02:34:42 16° ENE 02:36:14 10° NNE
IRS-P3 4.1 02:33:50 10° NNE 02:39:12 86° ESE 02:41:12 40° S
Cosmos 1867 3.8 02:37:24 37° WSW 02:39:26 61° NW 02:44:54 10° NNE
Cosmos 1151 Rocket 4.0 02:35:48 10° NNW 02:39:29 31° W 02:39:29 31° W
Genesis I 3.0 02:36:10 10° NW 02:40:09 78° WSW 02:40:38 65° S
Cosmos 1437 Rocket 3.4 02:37:49 10° NNW 02:41:17 39° W 02:41:17 39° W
H-2A ROCKET BODY4.302:47:55SE02:47:55SE02:29:36WSW
Aureole 1 Rocket 3.3 02:42:28 10° NNW 02:46:46 71° WSW 02:49:08 33° S
ASTEX 1 4.3 02:45:32 10° NNW 02:50:01 34° WNW 02:51:17 30° WSW
Resurs 1-4 Rocket 4.0 02:47:07 10° NE 02:51:21 24° E 02:55:34 10° SE
Sich 1 3.0 02:53:34 44° S 02:54:58 89° WNW 02:59:24 10° N
Cosmos 1980 Rocket 2.1 02:53:17 10° NNW 02:58:57 87° WSW 03:04:06 13° SSE
Cosmos 2151 4.0 02:58:18 29° W 02:59:02 30° WNW 03:02:51 10° NNW
Cosmos 1300 3.1 03:03:38 10° NNW 03:07:18 44° W 03:07:48 41° WSW
Cosmos 371 Rocket 3.5 03:04:43 10° NNW 03:09:36 71° ENE 03:14:24 10° SSE
BREEZE-M DEB (TANK) 2.7 03:08:59 38° S 03:09:50 47° SE 03:16:35 10° ENE
Cosmos 540 Rocket 3.6 03:05:06 10° NNW 03:10:09 55° WSW 03:12:41 28° S
USA 215 3.6 03:05:41 10° NE 03:12:05 59° NNW 03:17:13 17° WSW
Cosmos 2058 3.8 03:12:15 30° WSW 03:13:17 35° WNW 03:17:09 10° N
Cosmos 2242 Rocket 3.6 03:09:01 10° NNW 03:13:23 61° W 03:15:13 33° SSW
Cosmos 2082 Rocket 3.2 03:11:43 21° WSW 03:14:41 35° NW 03:19:53 10° N
ERS-2 3.2 03:12:07 10° N 03:15:27 31° WNW 03:16:18 28° W
AQUA 4.1 03:15:44 10° N 03:20:23 54° WNW 03:22:38 28° SW
Cosmos 1697 Rocket 3.3 03:16:03 10° NW 03:21:10 36° WSW 03:23:25 26° SSW
NPP 4.1 03:17:29 10° N 03:22:40 48° WNW 03:25:31 25° SW
CZ-2D R/B 3.0 03:19:21 10° NNE 03:24:21 44° E 03:29:13 11° S
Cosmos 1869 4.0 03:21:23 10° N 03:25:17 54° E 03:29:10 10° SSE
ISS -0.8 03:23:43 10° NW 03:26:24 23° NNE 03:29:04 10° ENE
SL-16 R/B 2.8 03:20:39 10° SSE 03:26:52 73° ENE 03:33:08 10° N
UNKNOWN OBJECT B 4.4 03:26:51 10° NE 03:30:13 30° E 03:33:36 10° SSE
Cosmos 2360 4.2 03:25:00 10° NNW 03:30:41 70° WSW 03:36:21 10° SSE
Abrixas 2.6 03:29:47 34° W 03:30:57 72° NNW 03:34:02 10° ENE
SL-14 R/B 4.1 03:30:30 27° WSW 03:31:42 33° WNW 03:35:13 10° N
Cosmos 1833 Rocket 3.8 03:29:15 18° WSW 03:32:37 33° NW 03:37:42 10° N
Spot 4 Rocket 4.0 03:27:55 10° N 03:33:05 76° WNW 03:36:30 21° SSW
Cosmos 1455 2.1 03:31:24 10° N 03:35:15 86° E 03:38:21 15° S
CZ-4C R/B 4.3 03:35:22 10° WNW 03:39:41 21° NNW 03:44:24 10° NNE
Cosmos 968 Rocket 3.4 03:38:15 22° SSW 03:41:33 73° WNW 03:46:42 10° NNE
Cosmos 1538 Rocket 4.1 03:36:39 10° NNW 03:41:46 58° WSW 03:46:54 10° S
CZ-3 Stage 3 4.1 03:35:40 10° WSW 03:45:03 25° SSW 03:48:29 10° SE
Cosmos 923 Rocket 4.3 03:40:06 10° NNW 03:45:24 72° ENE 03:50:37 10° SSE
Cosmos 1703 3.9 03:43:37 24° SW 03:45:31 40° WNW 03:49:18 10° N
Cosmos 1633 Rocket 4.3 03:44:54 19° WSW 03:46:54 27° WNW 03:50:40 10° NNW
Lacrosse 5 rocket 2.5 03:44:25 10° NW 03:48:42 51° NE 03:53:09 10° ESE
ADEOS 4.1 03:44:12 10° N 03:49:10 45° WNW 03:52:43 18° SW
ATLAS 5 CENTAUR R/B 3.6 03:45:46 10° SSE 03:49:43 25° ESE 03:53:54 10° ENE
SL-16 R/B 2.2 03:49:15 10° NNW 03:54:57 82° WSW 04:00:37 10° SSE
EO 1 Del DPAF 3.6 03:52:36 15° S 03:55:33 46° W 03:59:22 10° NNW
Cosmos 1680 Rocket 3.8 03:51:16 10° NNW 03:56:30 69° ENE 04:01:40 10° SSE
Cosmos 1703 Rocket 3.9 03:52:26 10° N 03:56:49 66° E 04:01:08 10° SSE
Cosmos 1726 4.0 03:57:08 10° NW 03:59:09 14° W 03:59:50 14° W
Meteor 1-4 Rocket 3.2 03:57:37 10° NNW 04:01:06 37° W 04:03:48 15° SSW
Cosmos 1470 Rocket 4.4 03:59:12 18° SW 04:02:03 36° WNW 04:06:12 10° N
CENTAUR R/B 3.2 03:57:54 14° WSW 04:03:06 49° NW 04:09:55 10° NNE
Lacrosse 5 2.1 03:58:37 10° WNW 04:03:24 44° SW 04:08:10 10° SSE
Cosmos 1777 Rocket 4.0 03:59:40 15° SSW 04:04:07 75° WNW 04:09:27 10° NNE
IRS-1D 3.7 03:59:46 10° N 04:05:04 64° WNW 04:09:57 12° SSW
USA 161 3.5 04:05:41 11° W 04:05:41 11° W 04:06:02 10° WNW
Cosmos 1933 Rocket 4.5 04:04:16 16° SW 04:07:08 33° WNW 04:11:08 10° N
Cosmos 1709 Rocket 4.3 04:02:08 13° SSW 04:07:41 54° WNW 04:13:50 10° N
Cosmos 1271 Rocket 3.6 04:05:00 10° NNW 04:08:23 31° W 04:11:02 14° SSW
UNK 3.9 04:04:48 10° S 04:09:16 53° W 04:13:45 10° NNW
Cosmos 2322 Rocket 2.3 04:04:44 10° NNW 04:10:15 57° WSW 04:15:43 10° S
CRYOSAT 2 4.3 04:05:47 10° N 04:10:41 76° W 04:15:32 10° SSW
ARIANE 5 R/B 2.9 04:06:22 10° N 04:11:19 49° WNW 04:15:47 12° SW
CZ-2C R/B 3.8 04:07:37 10° SSE 04:12:04 81° ENE 04:16:37 10° NNW
BREEZE-M DEB (TANK) 2.5 04:11:05 10° WNW 04:14:31 49° NNE 04:16:41 10° E
SME Rocket 4.0 04:08:03 10° SSE 04:15:31 87° WSW 04:20:26 10° NNW
Cosmos 773 Rocket 4.2 04:10:57 10° NNW 04:15:54 50° WSW 04:20:50 10° S
CZ-2D R/B 3.5 04:13:55 10° NNE 04:18:11 82° ESE 04:22:17 10° S
Okean O Rocket 1.9 04:13:55 10° NNE 04:18:22 69° ESE 04:22:45 10° S
Cosmos 1626 3.1 04:15:54 14° SW 04:18:40 32° WNW 04:22:05 10° N
BREEZE-M TANK 2.1 04:15:21 10° W 04:18:58 62° N 04:21:24 10° E
Cosmos 2292 Rocket 3.8 04:23:56 13° SW 04:26:10 28° WNW 04:29:01 10° NNW
Resurs 1-4 Rocket 2.6 04:26:20 10° N 04:31:25 47° WNW 04:36:29 10° SW
Okean-O 4.1 04:33:08 10° NNE 04:37:17 38° E 04:41:26 10° SSE
ATLAS CENTAUR R/B 3.8 04:34:20 10° NNW 04:38:39 32° NE 04:42:39 10° ESE
Cosmos 2221 Rocket 4.0 04:34:48 10° NNW 04:39:04 44° W 04:43:21 10° SSW
Okean 1-7 3.1 04:36:40 10° NNW 04:41:04 66° W 04:45:23 10° S
Cosmos 1980 Rocket 4.0 04:40:01 10° WNW 04:42:02 12° W 04:44:04 10° WSW
CZ-4B R/B 3.3 04:38:02 10° NNE 04:43:29 89° WNW 04:49:00 10° SSW
Cosmos 2360 Rocket 2.2 04:38:05 10° NNW 04:43:44 84° WSW 04:49:22 10° SSE
OAO 3 Rocket 4.3 04:40:45 10° SW 04:44:45 28° S 04:48:49 10° ESE
